| time (UTC) | temp F | wind direction | speed MPH | gust MPH | rain 1hr in | rain 24hr in | rain mn in | humidity % | barometer mb |
| 20260831194118 | 66 | 208 | 2.0 | 5.0 | 0.00 | 0.00 | 0.00 | 73 | 1014.9 |
| 20260831193618 | 66 | 200 | 2.0 | 5.0 | 0.00 | 0.00 | 0.00 | 72 | 1014.9 |
| 20260831193446 | 66 | 211 | 2.0 | 5.0 | 0.00 | 0.00 | 0.00 | 72 | 1014.9 |
| 20260831192939 | 67 | 238 | 2.0 | 6.0 | 0.00 | 0.00 | 0.00 | 71 | 1014.8 |
| 20260831192450 | 67 | 239 | 2.0 | 6.0 | 0.00 | 0.00 | 0.00 | 71 | 1014.9 |
| 20260831191619 | 67 | 236 | 2.0 | 5.0 | 0.00 | 0.00 | 0.00 | 71 | 1014.9 |
| 20260831191106 | 67 | 225 | 2.0 | 5.0 | 0.00 | 0.00 | 0.00 | 70 | 1014.7 |
| 20260831190605 | 67 | 211 | 1.0 | 3.0 | 0.00 | 0.00 | 0.00 | 70 | 1014.7 |
| 20260831190101 | 67 | 232 | 1.0 | 4.0 | 0.00 | 0.00 | 0.00 | 70 | 1014.7 |
| 20260831185926 | 67 | 241 | 2.0 | 4.0 | 0.00 | 0.00 | 0.00 | 69 | 1014.7 |
| 20260831185058 | 67 | 244 | 2.0 | 5.0 | 0.00 | 0.00 | 0.00 | 69 | 1014.6 |
| 20260831184553 | 67 | 260 | 2.0 | 6.0 | 0.00 | 0.00 | 0.00 | 69 | 1014.6 |
| 20260831184058 | 67 | 223 | 2.0 | 9.0 | 0.00 | 0.00 | 0.00 | 69 | 1014.4 |
| 20260831183547 | 67 | 226 | 2.0 | 9.0 | 0.00 | 0.00 | 0.00 | 68 | 1014.2 |
| 20260831183050 | 67 | 270 | 2.0 | 7.0 | 0.00 | 0.00 | 0.00 | 68 | 1014.2 |
| 20260831182544 | 68 | 201 | 2.0 | 6.0 | 0.00 | 0.00 | 0.00 | 68 | 1014.1 |
| 20260831182041 | 68 | 274 | 2.0 | 6.0 | 0.00 | 0.00 | 0.00 | 68 | 1014.0 |
| 20260831181539 | 68 | 242 | 2.0 | 7.0 | 0.00 | 0.00 | 0.00 | 67 | 1013.9 |
| 20260831181039 | 68 | 288 | 3.0 | 10.0 | 0.00 | 0.00 | 0.00 | 67 | 1014.0 |
| 20260831180542 | 68 | 147 | 3.0 | 10.0 | 0.00 | 0.00 | 0.00 | 67 | 1013.8 |
| 20260831180046 | 68 | 279 | 3.0 | 10.0 | 0.00 | 0.00 | 0.00 | 67 | 1013.7 |
| 20260831175858 | 68 | 239 | 3.0 | 10.0 | 0.00 | 0.00 | 0.00 | 67 | 1013.7 |
| 20260831175036 | 68 | 145 | 4.0 | 10.0 | 0.00 | 0.00 | 0.00 | 67 | 1013.7 |
| 20260831174535 | 68 | 211 | 4.0 | 14.0 | 0.00 | 0.00 | 0.00 | 67 | 1013.7 |
| 20260831174034 | 69 | 162 | 4.0 | 14.0 | 0.00 | 0.00 | 0.00 | 66 | 1013.5 |
| 20260831173535 | 69 | 196 | 4.0 | 11.0 | 0.00 | 0.00 | 0.00 | 67 | 1013.5 |
| 20260831173040 | 69 | 9 | 4.0 | 12.0 | 0.00 | 0.00 | 0.00 | 66 | 1013.4 |
| 20260831172536 | 69 | 332 | 5.0 | 13.0 | 0.00 | 0.00 | 0.00 | 66 | 1013.3 |
| 20260831172036 | 69 | 158 | 5.0 | 13.0 | 0.00 | 0.00 | 0.00 | 64 | 1013.2 |
| 20260831171533 | 69 | 5 | 4.0 | 13.0 | 0.00 | 0.00 | 0.00 | 64 | 1013.2 |
| 20260831171030 | 70 | 325 | 3.0 | 10.0 | 0.00 | 0.00 | 0.00 | 64 | 1013.1 |
| 20260831170531 | 70 | 227 | 3.0 | 12.0 | 0.00 | 0.00 | 0.00 | 64 | 1013.1 |
| 20260831170414 | 70 | 346 | 4.0 | 12.0 | 0.00 | 0.00 | 0.00 | 64 | 1013.0 |
| 20260831165532 | 70 | 153 | 4.0 | 12.0 | 0.00 | 0.00 | 0.00 | 64 | 1012.9 |
| 20260831165358 | 70 | 212 | 5.0 | 17.0 | 0.00 | 0.00 | 0.00 | 63 | 1012.9 |
| 20260831164530 | 70 | 355 | 5.0 | 17.0 | 0.00 | 0.00 | 0.00 | 63 | 1012.9 |
| 20260831164031 | 71 | 336 | 3.0 | 11.0 | 0.00 | 0.00 | 0.00 | 63 | 1012.8 |
| 20260831163534 | 71 | 273 | 4.0 | 13.0 | 0.00 | 0.00 | 0.00 | 62 | 1012.7 |
| 20260831163034 | 71 | 338 | 5.0 | 13.0 | 0.00 | 0.00 | 0.00 | 62 | 1012.8 |
| 20260831162532 | 71 | 237 | 4.0 | 13.0 | 0.00 | 0.00 | 0.00 | 63 | 1012.8 |
| 20260831162030 | 71 | 298 | 5.0 | 18.0 | 0.00 | 0.00 | 0.00 | 63 | 1012.6 |
| 20260831161535 | 71 | 16 | 5.0 | 18.0 | 0.00 | 0.00 | 0.00 | 62 | 1012.7 |
| 20260831161033 | 71 | 271 | 4.0 | 14.0 | 0.00 | 0.00 | 0.00 | 63 | 1012.6 |
| 20260831160529 | 71 | 259 | 5.0 | 13.0 | 0.00 | 0.00 | 0.00 | 63 | 1012.5 |
| 20260831160036 | 70 | 287 | 6.0 | 17.0 | 0.00 | 0.00 | 0.00 | 63 | 1012.6 |
| 20260831155526 | 70 | 249 | 7.0 | 17.0 | 0.00 | 0.00 | 0.00 | 63 | 1012.4 |
| 20260831155026 | 71 | 273 | 7.0 | 17.0 | 0.00 | 0.00 | 0.00 | 62 | 1012.3 |
| 20260831154527 | 71 | 215 | 6.0 | 15.0 | 0.00 | 0.00 | 0.00 | 61 | 1012.2 |
| 20260831154026 | 71 | 325 | 7.0 | 15.0 | 0.00 | 0.00 | 0.00 | 60 | 1012.2 |
| 20260831153525 | 71 | 285 | 7.0 | 18.0 | 0.00 | 0.00 | 0.00 | 60 | 1012.1 |
| 20260831153026 | 71 | 327 | 7.0 | 19.0 | 0.00 | 0.00 | 0.00 | 63 | 1012.0 |
| 20260831152524 | 71 | 9 | 5.0 | 19.0 | 0.00 | 0.00 | 0.00 | 63 | 1011.9 |
| 20260831152026 | 70 | 188 | 5.0 | 16.0 | 0.00 | 0.00 | 0.00 | 65 | 1012.0 |
| 20260831151521 | 69 | 194 | 6.0 | 17.0 | 0.00 | 0.00 | 0.00 | 66 | 1011.9 |
| 20260831151021 | 70 | 331 | 5.0 | 17.0 | 0.00 | 0.00 | 0.00 | 65 | 1011.8 |
| 20260831150524 | 70 | 202 | 4.0 | 12.0 | 0.00 | 0.00 | 0.00 | 65 | 1011.7 |
| 20260831150035 | 70 | 319 | 5.0 | 14.0 | 0.00 | 0.00 | 0.00 | 66 | 1011.7 |
| 20260831145527 | 69 | 333 | 6.0 | 15.0 | 0.00 | 0.00 | 0.00 | 66 | 1011.7 |
| 20260831145025 | 70 | 239 | 6.0 | 15.0 | 0.00 | 0.00 | 0.00 | 65 | 1011.8 |
| 20260831144524 | 70 | 261 | 7.0 | 19.0 | 0.00 | 0.00 | 0.00 | 64 | 1011.5 |
| 20260831144355 | 71 | 155 | 7.0 | 19.0 | 0.00 | 0.00 | 0.00 | 63 | 1011.5 |
| 20260831143523 | 71 | 14 | 8.0 | 19.0 | 0.00 | 0.00 | 0.00 | 62 | 1011.5 |
| 20260831143020 | 71 | 190 | 6.0 | 19.0 | 0.00 | 0.00 | 0.00 | 61 | 1011.3 |
| 20260831142519 | 71 | 164 | 5.0 | 16.0 | 0.00 | 0.00 | 0.00 | 63 | 1011.3 |
| 20260831142022 | 70 | 347 | 4.0 | 13.0 | 0.00 | 0.00 | 0.00 | 64 | 1011.2 |
| 20260831141516 | 69 | 323 | 4.0 | 12.0 | 0.00 | 0.00 | 0.00 | 68 | 1011.2 |
| 20260831141021 | 69 | 294 | 5.0 | 17.0 | 0.00 | 0.00 | 0.00 | 66 | 1011.1 |
| 20260831140527 | 70 | 317 | 5.0 | 17.0 | 0.00 | 0.00 | 0.00 | 64 | 1011.0 |
| 20260831140032 | 71 | 310 | 5.0 | 12.0 | 0.00 | 0.00 | 0.00 | 61 | 1010.9 |
| 20260831135520 | 72 | 300 | 5.0 | 13.0 | 0.00 | 0.00 | 0.00 | 59 | 1010.8 |
| 20260831135020 | 72 | 220 | 7.0 | 16.0 | 0.00 | 0.00 | 0.00 | 59 | 1010.7 |
| 20260831134514 | 71 | 149 | 7.0 | 16.0 | 0.00 | 0.00 | 0.00 | 59 | 1010.5 |
| 20260831134020 | 70 | 253 | 6.0 | 18.0 | 0.00 | 0.00 | 0.00 | 61 | 1010.6 |
| 20260831133515 | 70 | 9 | 6.0 | 18.0 | 0.00 | 0.00 | 0.00 | 60 | 1010.5 |
| 20260831133031 | 71 | 221 | 6.0 | 14.0 | 0.00 | 0.00 | 0.00 | 59 | 1010.5 |
| 20260831132527 | 71 | 333 | 6.0 | 17.0 | 0.00 | 0.00 | 0.00 | 61 | 1010.4 |
| 20260831132023 | 72 | 355 | 6.0 | 17.0 | 0.00 | 0.00 | 0.00 | 61 | 1010.4 |
| 20260831131518 | 71 | 284 | 6.0 | 16.0 | 0.00 | 0.00 | 0.00 | 61 | 1010.3 |
| 20260831131428 | 71 | 209 | 7.0 | 16.0 | 0.00 | 0.00 | 0.00 | 64 | 1010.3 |
| 20260831130517 | 71 | 160 | 7.0 | 16.0 | 0.00 | 0.00 | 0.00 | 64 | 1010.3 |
| 20260831130030 | 71 | 267 | 7.0 | 16.0 | 0.00 | 0.00 | 0.00 | 66 | 1010.3 |
| 20260831125520 | 71 | 331 | 7.0 | 20.0 | 0.00 | 0.00 | 0.00 | 69 | 1010.2 |
| 20260831125424 | 71 | 219 | 6.0 | 20.0 | 0.00 | 0.00 | 0.00 | 68 | 1010.1 |
| 20260831124508 | 71 | 210 | 7.0 | 17.0 | 0.00 | 0.00 | 0.00 | 70 | 1010.0 |
| 20260831124006 | 70 | 217 | 8.0 | 17.0 | 0.00 | 0.00 | 0.00 | 70 | 1010.1 |
| 20260831123508 | 69 | 197 | 8.0 | 17.0 | 0.00 | 0.00 | 0.00 | 72 | 1010.0 |
| 20260831123009 | 69 | 252 | 7.0 | 17.0 | 0.00 | 0.00 | 0.00 | 72 | 1010.0 |
| 20260831122507 | 69 | 203 | 7.0 | 17.0 | 0.00 | 0.00 | 0.00 | 73 | 1010.0 |
| 20260831122007 | 68 | 256 | 7.0 | 16.0 | 0.00 | 0.00 | 0.00 | 74 | 1009.9 |
| 20260831121503 | 68 | 265 | 8.0 | 17.0 | 0.00 | 0.00 | 0.00 | 74 | 1009.9 |
| 20260831121012 | 67 | 202 | 9.0 | 20.0 | 0.00 | 0.00 | 0.00 | 75 | 1009.8 |
| 20260831120510 | 67 | 225 | 8.0 | 20.0 | 0.00 | 0.00 | 0.00 | 73 | 1009.8 |
| 20260831120010 | 67 | 199 | 8.0 | 17.0 | 0.00 | 0.00 | 0.00 | 72 | 1009.6 |
| 20260831115510 | 68 | 264 | 8.0 | 21.0 | 0.00 | 0.00 | 0.00 | 71 | 1009.3 |
| 20260831115005 | 69 | 218 | 8.0 | 21.0 | 0.00 | 0.00 | 0.00 | 70 | 1009.1 |
| 20260831114508 | 69 | 172 | 7.0 | 17.0 | 0.00 | 0.00 | 0.00 | 70 | 1009.1 |
| 20260831114004 | 68 | 232 | 7.0 | 17.0 | 0.00 | 0.00 | 0.00 | 73 | 1009.2 |
| 20260831113501 | 67 | 192 | 8.0 | 15.0 | 0.00 | 0.00 | 0.00 | 74 | 1009.0 |
| 20260831113003 | 68 | 204 | 8.0 | 23.0 | 0.00 | 0.00 | 0.00 | 70 | 1009.2 |
| 20260831112500 | 68 | 188 | 7.0 | 23.0 | 0.00 | 0.00 | 0.00 | 68 | 1009.1 |
| 20260831112003 | 69 | 197 | 8.0 | 19.0 | 0.00 | 0.00 | 0.00 | 66 | 1009.0 |
| 20260831111459 | 69 | 225 | 10.0 | 21.0 | 0.00 | 0.00 | 0.00 | 65 | 1008.9 |
| 20260831110958 | 69 | 244 | 9.0 | 21.0 | 0.00 | 0.00 | 0.00 | 66 | 1009.1 |
| 20260831110854 | 69 | 170 | 9.0 | 20.0 | 0.00 | 0.00 | 0.00 | 66 | 1009.1 |
| 20260831110000 | 69 | 176 | 9.0 | 20.0 | 0.00 | 0.00 | 0.00 | 65 | 1009.0 |
| 20260831105503 | 69 | 205 | 8.0 | 17.0 | 0.00 | 0.00 | 0.00 | 68 | 1008.9 |
| 20260831105000 | 69 | 203 | 8.0 | 19.0 | 0.00 | 0.00 | 0.00 | 67 | 1009.1 |
| 20260831104918 | 69 | 248 | 8.0 | 19.0 | 0.00 | 0.00 | 0.00 | 67 | 1009.1 |
| 20260831103951 | 69 | 225 | 8.0 | 23.0 | 0.00 | 0.00 | 0.00 | 67 | 1009.2 |
| 20260831103450 | 69 | 189 | 9.0 | 23.0 | 0.00 | 0.00 | 0.00 | 67 | 1009.0 |
| 20260831103251 | 69 | 205 | 9.0 | 17.0 | 0.00 | 0.00 | 0.00 | 69 | 1009.0 |
| 20260831103124 | 68 | 165 | 8.0 | 19.0 | 0.00 | 0.00 | 0.00 | 70 | 1009.1 |
| 20260831102641 | 68 | 200 | 8.0 | 19.0 | 0.00 | 0.00 | 0.00 | 69 | 1009.0 |
| 20260831101534 | 68 | 206 | 9.0 | 18.0 | 0.00 | 0.00 | 0.00 | 73 | 1008.9 |
| 20260831101530 | 68 | 178 | 8.0 | 16.0 | 0.00 | 0.00 | 0.00 | 71 | 1008.9 |
| 20260831101458 | 69 | 221 | 10.0 | 25.0 | 0.00 | 0.00 | 0.00 | 69 | 1008.9 |
| 20260831101024 | 68 | 205 | 9.0 | 25.0 | 0.00 | 0.00 | 0.00 | 69 | 1008.9 |
| 20260831100236 | 67 | 185 | 8.0 | 17.0 | 0.00 | 0.00 | 0.00 | 75 | 1008.9 |
| 20260831100051 | 68 | 248 | 8.0 | 18.0 | 0.00 | 0.00 | 0.00 | 70 | 1009.1 |
| 20260831095555 | 68 | 151 | 9.0 | 18.0 | 0.00 | 0.00 | 0.00 | 72 | 1009.0 |
| 20260831093951 | 67 | 191 | 9.0 | 21.0 | 0.00 | 0.00 | 0.00 | 76 | 1008.8 |
| 20260831093449 | 66 | 220 | 10.0 | 21.0 | 0.00 | 0.00 | 0.00 | 77 | 1008.8 |
| 20260831092941 | 66 | 258 | 9.0 | 20.0 | 0.00 | 0.00 | 0.00 | 78 | 1008.7 |
| 20260831092446 | 66 | 258 | 8.0 | 18.0 | 0.00 | 0.00 | 0.00 | 78 | 1008.8 |
| 20260831092353 | 66 | 196 | 10.0 | 21.0 | 0.00 | 0.00 | 0.00 | 77 | 1008.7 |
| 20260831091439 | 66 | 248 | 10.0 | 21.0 | 0.00 | 0.00 | 0.00 | 77 | 1008.6 |
| 20260831090941 | 67 | 223 | 10.0 | 23.0 | 0.00 | 0.00 | 0.00 | 76 | 1008.6 |
| 20260831090440 | 67 | 222 | 10.0 | 23.0 | 0.00 | 0.00 | 0.00 | 75 | 1008.6 |
| 20260831085939 | 67 | 229 | 9.0 | 19.0 | 0.00 | 0.00 | 0.00 | 75 | 1008.5 |
| 20260831085438 | 66 | 143 | 10.0 | 21.0 | 0.00 | 0.00 | 0.00 | 76 | 1008.5 |
| 20260831084938 | 66 | 223 | 11.0 | 22.0 | 0.00 | 0.00 | 0.00 | 76 | 1008.5 |
| 20260831084437 | 66 | 211 | 12.0 | 25.0 | 0.00 | 0.00 | 0.00 | 76 | 1008.3 |
| 20260831083932 | 66 | 198 | 12.0 | 25.0 | 0.00 | 0.00 | 0.00 | 76 | 1008.4 |
| 20260831083432 | 66 | 208 | 9.0 | 23.0 | 0.00 | 0.00 | 0.00 | 76 | 1008.3 |
| 20260831082933 | 66 | 200 | 8.0 | 18.0 | 0.00 | 0.00 | 0.00 | 77 | 1008.1 |
| 20260831082430 | 66 | 187 | 9.0 | 18.0 | 0.00 | 0.00 | 0.00 | 77 | 1008.2 |
| 20260831082356 | 65 | 284 | 9.0 | 22.0 | 0.00 | 0.00 | 0.00 | 79 | 1008.1 |
| 20260831082350 | 66 | 202 | 9.0 | 19.0 | 0.00 | 0.00 | 0.00 | 78 | 1008.0 |
| 20260831081546 | 65 | 229 | 9.0 | 22.0 | 0.00 | 0.00 | 0.00 | 79 | 1008.0 |
| 20260831080428 | 65 | 182 | 9.0 | 25.0 | 0.00 | 0.00 | 0.00 | 79 | 1008.1 |
| 20260831075931 | 65 | 233 | 9.0 | 25.0 | 0.00 | 0.00 | 0.00 | 79 | 1008.3 |
| 20260831075428 | 65 | 242 | 8.0 | 19.0 | 0.00 | 0.00 | 0.00 | 79 | 1008.2 |
| 20260831075300 | 65 | 216 | 7.0 | 18.0 | 0.00 | 0.00 | 0.00 | 79 | 1008.1 |
| 20260831074428 | 65 | 219 | 8.0 | 23.0 | 0.00 | 0.00 | 0.00 | 79 | 1008.1 |
| 20260831073929 | 65 | 236 | 9.0 | 23.0 | 0.00 | 0.00 | 0.00 | 80 | 1008.0 |
| 20260831073424 | 65 | 211 | 9.0 | 19.0 | 0.00 | 0.00 | 0.00 | 80 | 1008.0 |
| 20260831072923 | 64 | 214 | 8.0 | 19.0 | 0.00 | 0.00 | 0.00 | 81 | 1008.0 |
| 20260831072422 | 64 | 220 | 8.0 | 16.0 | 0.00 | 0.00 | 0.00 | 82 | 1008.1 |
| 20260831071925 | 64 | 211 | 8.0 | 15.0 | 0.00 | 0.00 | 0.00 | 82 | 1008.2 |
| 20260831071421 | 64 | 198 | 7.0 | 15.0 | 0.00 | 0.00 | 0.00 | 82 | 1008.0 |
| 20260831071142 | 64 | 200 | 7.0 | 14.0 | 0.00 | 0.01 | 0.00 | 82 | 1008.2 |
| 20260831071037 | 64 | 150 | 6.0 | 14.0 | 0.00 | 0.01 | 0.00 | 82 | 1008.3 |
| 20260831065919 | 64 | 228 | 7.0 | 15.0 | 0.00 | 0.01 | 0.00 | 82 | 1008.1 |
| 20260831065420 | 64 | 205 | 7.0 | 15.0 | 0.00 | 0.01 | 0.00 | 82 | 1008.3 |
| 20260831064917 | 64 | 217 | 6.0 | 11.0 | 0.00 | 0.01 | 0.00 | 82 | 1008.3 |
| 20260831064740 | 64 | 217 | 5.0 | 12.0 | 0.00 | 0.01 | 0.00 | 83 | 1008.4 |
| 20260831063924 | 63 | 231 | 7.0 | 13.0 | 0.00 | 0.01 | 0.00 | 83 | 1008.5 |
| 20260831063414 | 63 | 186 | 7.0 | 13.0 | 0.00 | 0.01 | 0.00 | 83 | 1008.5 |
| 20260831063240 | 63 | 239 | 6.0 | 15.0 | 0.00 | 0.01 | 0.00 | 84 | 1008.5 |
| 20260831062413 | 63 | 202 | 7.0 | 17.0 | 0.00 | 0.01 | 0.00 | 85 | 1008.5 |
| 20260831061913 | 63 | 185 | 7.0 | 17.0 | 0.00 | 0.01 | 0.00 | 85 | 1008.5 |
| 20260831061411 | 62 | 0 | 7.0 | 13.0 | 0.00 | 0.01 | 0.00 | 86 | 1008.5 |
| 20260831060913 | 62 | 157 | 6.0 | 12.0 | 0.00 | 0.01 | 0.00 | 86 | 1008.2 |
| 20260831060411 | 62 | 221 | 5.0 | 12.0 | 0.00 | 0.01 | 0.00 | 86 | 1008.3 |
| 20260831055911 | 62 | 168 | 5.0 | 12.0 | 0.00 | 0.01 | 0.00 | 86 | 1008.1 |
| 20260831055413 | 62 | 199 | 5.0 | 12.0 | 0.00 | 0.01 | 0.00 | 86 | 1008.1 |
| 20260831055235 | 62 | 0 | 5.0 | 11.0 | 0.00 | 0.01 | 0.00 | 86 | 1008.0 |
| 20260831054408 | 62 | 202 | 5.0 | 11.0 | 0.00 | 0.01 | 0.00 | 87 | 1008.1 |
| 20260831054236 | 62 | 220 | 5.0 | 11.0 | 0.00 | 0.01 | 0.00 | 87 | 1008.2 |
| 20260831053735 | 62 | 232 | 5.0 | 12.0 | 0.00 | 0.01 | 0.00 | 87 | 1008.1 |
| 20260831052909 | 62 | 197 | 5.0 | 12.0 | 0.00 | 0.01 | 0.00 | 87 | 1008.0 |
| 20260831052414 | 62 | 222 | 5.0 | 11.0 | 0.00 | 0.01 | 0.00 | 87 | 1008.0 |
| 20260831051913 | 62 | 216 | 4.0 | 10.0 | 0.00 | 0.01 | 0.00 | 87 | 1008.0 |
| 20260831051413 | 61 | 172 | 4.0 | 8.0 | 0.00 | 0.01 | 0.00 | 88 | 1008.2 |
| 20260831050912 | 61 | 192 | 5.0 | 10.0 | 0.00 | 0.01 | 0.00 | 88 | 1008.1 |
| 20260831050415 | 61 | 178 | 5.0 | 10.0 | 0.00 | 0.01 | 0.00 | 88 | 1008.1 |
| 20260831045902 | 61 | 212 | 5.0 | 10.0 | 0.00 | 0.01 | 0.00 | 88 | 1008.1 |
| 20260831045401 | 61 | 176 | 5.0 | 8.0 | 0.00 | 0.01 | 0.00 | 88 | 1008.1 |
| 20260831044902 | 61 | 191 | 5.0 | 10.0 | 0.00 | 0.01 | 0.00 | 88 | 1007.9 |
| 20260831044403 | 61 | 171 | 4.0 | 10.0 | 0.00 | 0.01 | 0.00 | 88 | 1008.0 |
| 20260831044229 | 61 | 0 | 5.0 | 12.0 | 0.00 | 0.01 | 0.00 | 88 | 1008.0 |
| 20260831043400 | 61 | 191 | 6.0 | 12.0 | 0.00 | 0.01 | 0.00 | 88 | 1008.0 |
| 20260831042902 | 61 | 224 | 6.0 | 11.0 | 0.00 | 0.01 | 0.00 | 88 | 1007.9 |
| 20260831042659 | 62 | 157 | 5.0 | 8.0 | 0.00 | 0.02 | 0.00 | 87 | 1008.1 |
| 20260831042555 | 61 | 184 | 5.0 | 12.0 | 0.00 | 0.01 | 0.00 | 88 | 1007.8 |
| 20260831042409 | 61 | 200 | 4.0 | 12.0 | 0.00 | 0.01 | 0.00 | 88 | 1007.9 |
| 20260831042232 | 61 | 167 | 4.0 | 10.0 | 0.00 | 0.02 | 0.00 | 88 | 1007.8 |
| 20260831042038 | 61 | 221 | 5.0 | 11.0 | 0.00 | 0.02 | 0.00 | 87 | 1008.0 |
| 20260831041343 | 61 | 231 | 5.0 | 11.0 | 0.00 | 0.02 | 0.00 | 88 | 1008.1 |
| 20260831040407 | 61 | 194 | 4.0 | 8.0 | 0.00 | 0.02 | 0.00 | 87 | 1008.1 |
| 20260831034843 | 62 | 235 | 4.0 | 9.0 | 0.00 | 0.02 | 0.00 | 87 | 1008.1 |
| 20260831034345 | 62 | 209 | 3.0 | 9.0 | 0.00 | 0.02 | 0.00 | 87 | 1008.2 |
| 20260831033842 | 62 | 179 | 4.0 | 9.0 | 0.00 | 0.02 | 0.00 | 87 | 1008.2 |
| 20260831033340 | 62 | 198 | 4.0 | 9.0 | 0.00 | 0.02 | 0.00 | 87 | 1008.3 |
| 20260831032842 | 62 | 215 | 4.0 | 8.0 | 0.00 | 0.02 | 0.00 | 87 | 1008.2 |
| 20260831032340 | 62 | 189 | 4.0 | 8.0 | 0.00 | 0.02 | 0.00 | 87 | 1008.1 |
| 20260831031844 | 62 | 221 | 4.0 | 8.0 | 0.00 | 0.02 | 0.00 | 87 | 1008.1 |
| 20260831031342 | 62 | 207 | 4.0 | 11.0 | 0.00 | 0.02 | 0.00 | 87 | 1008.2 |
| 20260831030841 | 62 | 196 | 4.0 | 11.0 | 0.00 | 0.02 | 0.00 | 87 | 1008.2 |
| 20260831030338 | 62 | 205 | 3.0 | 8.0 | 0.00 | 0.02 | 0.00 | 87 | 1008.3 |
| 20260831025837 | 62 | 171 | 3.0 | 8.0 | 0.00 | 0.02 | 0.00 | 87 | 1008.4 |
| 20260831025334 | 62 | 230 | 3.0 | 7.0 | 0.00 | 0.02 | 0.00 | 87 | 1008.3 |
| 20260831024836 | 62 | 193 | 3.0 | 9.0 | 0.00 | 0.02 | 0.00 | 87 | 1008.3 |
| 20260831024333 | 62 | 190 | 4.0 | 9.0 | 0.00 | 0.02 | 0.00 | 87 | 1008.3 |
| 20260831023835 | 62 | 233 | 4.0 | 9.0 | 0.00 | 0.02 | 0.00 | 87 | 1008.2 |
| 20260831023335 | 62 | 203 | 4.0 | 9.0 | 0.00 | 0.02 | 0.00 | 87 | 1008.2 |
| 20260831022839 | 62 | 244 | 4.0 | 9.0 | 0.00 | 0.02 | 0.00 | 87 | 1008.2 |
| 20260831022338 | 63 | 202 | 3.0 | 9.0 | 0.00 | 0.02 | 0.00 | 88 | 1008.3 |
| 20260831021834 | 63 | 220 | 4.0 | 8.0 | 0.00 | 0.02 | 0.00 | 88 | 1008.3 |
| 20260831021332 | 63 | 202 | 4.0 | 11.0 | 0.00 | 0.02 | 0.00 | 88 | 1008.3 |
| 20260831020836 | 63 | 215 | 4.0 | 11.0 | 0.00 | 0.02 | 0.00 | 88 | 1008.2 |
| 20260831020332 | 63 | 196 | 4.0 | 9.0 | 0.00 | 0.02 | 0.00 | 88 | 1008.2 |
| 20260831020215 | 63 | 200 | 4.0 | 9.0 | 0.00 | 0.02 | 0.00 | 88 | 1008.1 |
| 20260831015330 | 63 | 219 | 4.0 | 8.0 | 0.00 | 0.02 | 0.00 | 88 | 1008.0 |
| 20260831014831 | 63 | 213 | 3.0 | 7.0 | 0.00 | 0.02 | 0.00 | 88 | 1008.1 |
| 20260831014331 | 62 | 223 | 3.0 | 7.0 | 0.00 | 0.02 | 0.00 | 88 | 1008.2 |
| 20260831013831 | 62 | 223 | 3.0 | 7.0 | 0.00 | 0.02 | 0.00 | 88 | 1008.2 |
| 20260831013332 | 62 | 222 | 3.0 | 7.0 | 0.00 | 0.02 | 0.00 | 88 | 1008.2 |
| 20260831012831 | 62 | 178 | 3.0 | 9.0 | 0.00 | 0.02 | 0.00 | 88 | 1008.1 |
| 20260831012653 | 62 | 202 | 3.0 | 9.0 | 0.00 | 0.02 | 0.00 | 88 | 1008.2 |
| 20260831011831 | 62 | 188 | 3.0 | 8.0 | 0.00 | 0.02 | 0.00 | 88 | 1008.3 |
| 20260831011333 | 62 | 209 | 3.0 | 8.0 | 0.00 | 0.02 | 0.00 | 87 | 1008.4 |
| 20260831010830 | 62 | 195 | 2.0 | 6.0 | 0.00 | 0.02 | 0.00 | 87 | 1008.4 |
| 20260831010333 | 62 | 190 | 2.0 | 6.0 | 0.00 | 0.02 | 0.00 | 87 | 1008.5 |
| 20260831005830 | 63 | 212 | 2.0 | 6.0 | 0.00 | 0.02 | 0.00 | 87 | 1008.4 |
| 20260831005332 | 63 | 172 | 1.0 | 6.0 | 0.00 | 0.02 | 0.00 | 87 | 1008.5 |
| 20260831004830 | 63 | 177 | 1.0 | 3.0 | 0.00 | 0.02 | 0.00 | 87 | 1008.4 |
| 20260831004329 | 63 | 197 | 1.0 | 4.0 | 0.00 | 0.02 | 0.00 | 86 | 1008.5 |
| 20260831003827 | 63 | 197 | 1.0 | 4.0 | 0.00 | 0.02 | 0.00 | 86 | 1008.6 |
| 20260831003325 | 63 | 196 | 1.0 | 3.0 | 0.00 | 0.02 | 0.00 | 86 | 1008.6 |
| 20260831002825 | 63 | 197 | 0.0 | 3.0 | 0.00 | 0.02 | 0.00 | 86 | 1008.5 |
| 20260831002319 | 63 | 197 | 0.0 | 2.0 | 0.00 | 0.02 | 0.00 | 86 | 1008.6 |
| 20260831001821 | 63 | 197 | 0.0 | 3.0 | 0.00 | 0.02 | 0.00 | 86 | 1008.6 |
| 20260831001638 | 63 | 196 | 0.0 | 3.0 | 0.00 | 0.02 | 0.00 | 86 | 1008.6 |
| 20260831000811 | 63 | 197 | 1.0 | 4.0 | 0.00 | 0.02 | 0.00 | 86 | 1008.6 |
| 20260831000314 | 63 | 197 | 1.0 | 4.0 | 0.00 | 0.02 | 0.00 | 86 | 1008.8 |
| 20260830235811 | 63 | 225 | 2.0 | 5.0 | 0.00 | 0.02 | 0.00 | 86 | 1008.8 |
| 20260830235625 | 63 | 184 | 1.0 | 5.0 | 0.00 | 0.02 | 0.00 | 86 | 1008.8 |
| 20260830234822 | 63 | 219 | 1.0 | 4.0 | 0.00 | 0.02 | 0.00 | 86 | 1008.9 |
| 20260830234316 | 63 | 230 | 1.0 | 7.0 | 0.00 | 0.02 | 0.00 | 86 | 1008.9 |
| 20260830233812 | 63 | 176 | 2.0 | 7.0 | 0.00 | 0.02 | 0.00 | 86 | 1008.8 |
| 20260830233314 | 63 | 196 | 2.0 | 6.0 | 0.00 | 0.02 | 0.00 | 86 | 1008.7 |
| 20260830232813 | 63 | 173 | 2.0 | 6.0 | 0.00 | 0.02 | 0.00 | 87 | 1008.8 |
| 20260830232638 | 63 | 191 | 2.0 | 6.0 | 0.00 | 0.02 | 0.00 | 87 | 1009.0 |
| 20260830231814 | 63 | 200 | 2.0 | 6.0 | 0.00 | 0.02 | 0.00 | 86 | 1008.8 |
| 20260830231313 | 63 | 206 | 2.0 | 5.0 | 0.00 | 0.02 | 0.00 | 86 | 1008.8 |
| 20260830230801 | 63 | 196 | 2.0 | 5.0 | 0.00 | 0.02 | 0.00 | 86 | 1008.9 |
| 20260830230310 | 63 | 196 | 2.0 | 5.0 | 0.00 | 0.02 | 0.00 | 86 | 1008.9 |
| 20260830225754 | 63 | 186 | 2.0 | 6.0 | 0.00 | 0.02 | 0.00 | 86 | 1009.0 |
| 20260830225252 | 63 | 217 | 2.0 | 6.0 | 0.00 | 0.02 | 0.00 | 86 | 1008.9 |
| 20260830224748 | 63 | 173 | 2.0 | 6.0 | 0.00 | 0.02 | 0.00 | 86 | 1008.9 |
| 20260830224248 | 63 | 205 | 2.0 | 5.0 | 0.00 | 0.02 | 0.00 | 85 | 1008.9 |
| 20260830223745 | 63 | 187 | 1.0 | 5.0 | 0.00 | 0.02 | 0.00 | 85 | 1008.9 |
| 20260830223245 | 63 | 182 | 1.0 | 5.0 | 0.00 | 0.02 | 0.00 | 85 | 1009.0 |
| 20260830222745 | 63 | 171 | 1.0 | 4.0 | 0.00 | 0.02 | 0.00 | 84 | 1009.1 |
| 20260830222243 | 64 | 171 | 1.0 | 4.0 | 0.00 | 0.02 | 0.00 | 84 | 1009.1 |
| 20260830221739 | 64 | 171 | 1.0 | 4.0 | 0.00 | 0.02 | 0.00 | 84 | 1009.1 |
| 20260830221236 | 64 | 171 | 1.0 | 4.0 | 0.00 | 0.02 | 0.00 | 84 | 1009.2 |
| 20260830220741 | 64 | 171 | 0.0 | 4.0 | 0.00 | 0.02 | 0.00 | 84 | 1009.2 |
| 20260830220237 | 64 | 171 | 1.0 | 4.0 | 0.00 | 0.02 | 0.00 | 83 | 1009.2 |
| 20260830215734 | 64 | 171 | 1.0 | 5.0 | 0.00 | 0.02 | 0.02 | 83 | 1009.2 |
| 20260830215548 | 64 | 171 | 1.0 | 5.0 | 0.00 | 0.02 | 0.02 | 83 | 1009.3 |
| 20260830214731 | 64 | 180 | 1.0 | 4.0 | 0.00 | 0.02 | 0.02 | 83 | 1009.3 |
| 20260830214612 | 65 | 180 | 1.0 | 4.0 | 0.00 | 0.02 | 0.02 | 83 | 1009.4 |
| 20260830213732 | 65 | 180 | 1.0 | 3.0 | 0.00 | 0.02 | 0.02 | 82 | 1009.4 |
| 20260830213227 | 65 | 180 | 1.0 | 5.0 | 0.00 | 0.02 | 0.02 | 82 | 1009.5 |
| 20260830212714 | 65 | 248 | 1.0 | 5.0 | 0.00 | 0.02 | 0.02 | 82 | 1009.6 |
| 20260830212534 | 65 | 184 | 1.0 | 4.0 | 0.00 | 0.02 | 0.02 | 82 | 1009.5 |
| 20260830211913 | 65 | 184 | 2.0 | 7.0 | 0.00 | 0.02 | 0.02 | 82 | 1009.5 |
| 20260830211823 | 65 | 184 | 1.0 | 4.0 | 0.00 | 0.02 | 0.02 | 82 | 1009.6 |
| 20260830210710 | 65 | 184 | 2.0 | 7.0 | 0.00 | 0.02 | 0.02 | 81 | 1009.5 |
| 20260830210211 | 65 | 157 | 2.0 | 6.0 | 0.00 | 0.02 | 0.02 | 81 | 1009.6 |
| 20260830205708 | 65 | 180 | 3.0 | 7.0 | 0.00 | 0.02 | 0.02 | 81 | 1009.7 |
| 20260830205207 | 66 | 194 | 2.0 | 7.0 | 0.00 | 0.02 | 0.02 | 81 | 1009.7 |
| 20260830205041 | 66 | 221 | 3.0 | 7.0 | 0.00 | 0.02 | 0.02 | 80 | 1009.7 |
| 20260830204538 | 66 | 178 | 3.0 | 8.0 | 0.00 | 0.02 | 0.02 | 80 | 1009.8 |
| 20260830203700 | 66 | 187 | 4.0 | 8.0 | 0.00 | 0.02 | 0.02 | 80 | 1009.7 |
| 20260830203202 | 66 | 206 | 3.0 | 7.0 | 0.00 | 0.02 | 0.02 | 80 | 1009.7 |
| 20260830203036 | 66 | 182 | 3.0 | 8.0 | 0.00 | 0.02 | 0.02 | 79 | 1009.7 |
| 20260830202534 | 67 | 221 | 3.0 | 8.0 | 0.00 | 0.03 | 0.02 | 79 | 1009.7 |
| 20260830201705 | 67 | 153 | 3.0 | 9.0 | 0.00 | 0.03 | 0.02 | 78 | 1009.6 |
| 20260830201200 | 67 | 180 | 4.0 | 10.0 | 0.00 | 0.03 | 0.02 | 78 | 1009.7 |
| 20260830200702 | 67 | 180 | 4.0 | 10.0 | 0.00 | 0.03 | 0.02 | 78 | 1009.6 |
| 20260830200530 | 67 | 190 | 3.0 | 8.0 | 0.00 | 0.03 | 0.02 | 77 | 1009.8 |
| 20260830195701 | 67 | 214 | 4.0 | 10.0 | 0.00 | 0.03 | 0.02 | 76 | 1009.8 |
| 20260830195201 | 67 | 166 | 4.0 | 10.0 | 0.00 | 0.04 | 0.02 | 76 | 1009.8 |
| 20260830194704 | 67 | 192 | 4.0 | 9.0 | 0.00 | 0.04 | 0.02 | 76 | 1009.9 |